sat.trackr.live / text

‹ back to catalog

STARLINK-32714

NORAD 62499 · 2025-003N

PAYLOAD ACTIVE UNKNOWN

§ Identity

Operator
Country
US
Launch date
2025-01-06
Launch site
AFETR
Launch vehicle
Mass (kg)
RCS (m²)

Purposes: comms

External: N2YO · Heavens-Above · Gunter

§ Orbital elements

Epoch: 2026-05-24T21:43:35.450688Z

Period
94.27 min
Inclination
42.9984°
Eccentricity
0.0001730
Mean motion
15.27585046 rev/d
Perigee alt
481.8 km
Apogee alt
484.2 km
Semi-major
6,861.2 km
B*
4.7177e-4
RAAN
218.9006°
Arg perigee
275.5149°
Mean anomaly
84.5506°
Rev number
7,832

§ Raw data

STARLINK-327141 62499U 25003N   26144.90527142  .00012745  00000+0  47177-3 0  99942 62499  42.9984 218.9006 0001730 275.5149  84.5506 15.27585046 78329

JSON: /api/v1/satellites/62499 · /tle

For live sub-satellite position, see the globe view (requires WebGL).

§ Visibility from observer

Set your observer location to see the next 7 days of passes ≥ 10°. The values pass through the URL so the page stays shareable.

No JS? Fill the form by hand. The geolocation button needs JavaScript.